Location: Hamilton
(43.2500°N, 79.8330°W)
Time: 05:23:37
(UTC-05:00)

Amateur Radio Satellites - All Passes

Search period start: 18 November 2017 04:53
Search period end: 19 November 2017 04:53
Location: Hamilton, 43.2500°N, 79.8330°W

Satellite Date Start Highest point End Downlink Frequencies (MHz)
Time Altitude Azimuth
STARS 18 Nov 04:54:58 04:59:15 49° 72° (ENE) 05:03:33 437.465
YUBILEINY 18 Nov 04:59:19 05:06:29 30° 82° (E) 05:13:42 435.215
BEESAT 2 18 Nov 05:03:14 05:07:15 73° 305° (NW) 05:11:19 435.950
nSIGHT-1 18 Nov 05:06:28 05:09:25 34° 221° (SW) 05:12:20 .
ITAMSAT 1 18 Nov 05:10:02 05:14:37 32° 294° (WNW) 05:19:10 435.822/435.867
AO-7 18 Nov 05:13:28 05:21:17 47° 299° (WNW) 05:29:06 .
XW-2D 18 Nov 05:15:50 05:16:32 10° 90° (E) 05:17:15 145.860 - 145.880
CUBESAT XI-V 18 Nov 05:21:23 05:22:18 11° 272° (W) 05:23:15 437.345
RS-15 18 Nov 05:23:07 05:34:33 59° 247° (WSW) 05:45:23 29.354- 29.394
SO-50 18 Nov 05:25:54 05:27:18 11° 30° (NNE) 05:28:42 436.795
XW-2B 18 Nov 05:29:09 05:31:22 15° 92° (E) 05:33:35 145.730 - 145.750
AO-85 18 Nov 05:32:00 05:35:53 88° 125° (SE) 05:39:58 145.980
DOVE 4 18 Nov 05:37:58 05:43:15 80° 284° (WNW) 05:48:18 437.250
ISS 18 Nov 05:39:07 05:41:43 22° 224° (SW) 05:44:17 437.550
BEESAT 3 18 Nov 05:40:38 05:42:47 14° 322° (NW) 05:44:56 437.485
LilacSat-2 18 Nov 05:50:59 05:54:21 29° 96° (E) 05:57:45 437.200
XW-2C 18 Nov 05:53:35 05:56:56 29° 96° (E) 06:00:17 145.795 - 145.815
KKS-1 18 Nov 05:58:40 06:01:23 16° 269° (W) 06:04:07 437.445
NUDT-PHONESAT 18 Nov 05:59:23 06:02:22 23° 95° (E) 06:05:21 437.300
XW-2F 18 Nov 06:07:33 06:11:08 39° 98° (E) 06:14:42 145.980 - 146.000
CUTE 1.7 + AOD 2 18 Nov 06:13:56 06:15:50 13° 90° (E) 06:17:43 437.475
CUTE-I 18 Nov 06:15:44 06:20:51 42° 98° (E) 06:25:54 437.470
STRAND 1 18 Nov 06:22:02 06:26:55 44° 69° (ENE) 06:31:48 437.568
STARS 18 Nov 06:33:02 06:35:50 16° 268° (W) 06:38:40 437.465
CUBEBUG 2 18 Nov 06:33:27 06:34:43 11° 89° (E) 06:35:57 437.445
KAITUO 1B 18 Nov 06:41:37 06:45:23 83° 101° (E) 06:49:10 145.475/437.950
BEESAT 2 18 Nov 06:44:08 06:45:43 12° 325° (NW) 06:47:16 435.950
XW-2D 18 Nov 06:47:18 06:51:02 57° 286° (WNW) 06:54:47 145.860 - 145.880
FO-29 18 Nov 06:49:39 06:55:03 27° 59° (ENE) 07:00:56 435.910
SEEDS 18 Nov 06:50:29 06:53:36 20° 93° (E) 06:56:41 437.485
YUBILEINY 18 Nov 06:54:00 07:02:38 63° 282° (WNW) 07:11:24 435.215
XW-2B 18 Nov 07:02:08 07:05:42 39° 288° (WNW) 07:09:16 145.730 - 145.750
HO-68 18 Nov 07:04:04 07:10:59 48° 100° (E) 07:17:51 435.675
SO-50 18 Nov 07:04:18 07:08:49 51° 51° (NE) 07:13:24 436.795
AAUSAT CUBESAT 2 18 Nov 07:09:03 07:11:08 13° 90° (E) 07:13:13 437.432
AO-7 18 Nov 07:09:23 07:11:58 12° 321° (NW) 07:14:33 .
AO-85 18 Nov 07:14:54 07:16:56 13° 324° (NW) 07:19:02 145.980
DOVE 4 18 Nov 07:18:08 07:19:58 12° 303° (WNW) 07:21:48 437.250
LilacSat-2 18 Nov 07:25:34 07:28:27 21° 292° (WNW) 07:31:21 437.200
XW-2C 18 Nov 07:28:05 07:30:56 21° 292° (WNW) 07:33:48 145.795 - 145.815
NUDT-PHONESAT 18 Nov 07:33:07 07:36:09 24° 291° (WNW) 07:39:11 437.300
ZACube-1 18 Nov 07:34:58 07:37:34 16° 92° (E) 07:40:10 437.345
UWE-3 18 Nov 07:35:46 07:39:29 31° 96° (E) 07:43:10 435.000/436.395/437.385
RS-15 18 Nov 07:41:38 07:44:01 11° 269° (W) 07:46:24 29.354- 29.394
XW-2F 18 Nov 07:42:36 07:44:55 16° 294° (WNW) 07:47:13 145.980 - 146.000
CUTE 1.7 + AOD 2 18 Nov 07:47:49 07:52:02 59° 286° (WNW) 07:56:13 437.475
CUTE-I 18 Nov 07:56:11 08:00:40 27° 296° (WNW) 08:05:06 437.470
STRAND 1 18 Nov 08:02:09 08:06:15 24° 266° (W) 08:10:23 437.568
UNISAT 6 18 Nov 08:05:31 08:08:26 17° 64° (ENE) 08:11:20 437.425
CUBEBUG 2 18 Nov 08:07:37 08:11:47 63° 286° (WNW) 08:15:52 437.445
TIGRISAT 18 Nov 08:10:46 08:13:46 18° 64° (ENE) 08:16:44 435.000
XW-2A 18 Nov 08:16:08 08:19:29 82° 283° (WNW) 08:22:50 145.665 - 145.685
SEEDS 18 Nov 08:25:28 08:29:23 37° 289° (WNW) 08:33:18 437.485
AO-73 18 Nov 08:27:05 08:31:09 53° 100° (E) 08:35:12 145.935
FO-29 18 Nov 08:33:03 08:39:26 64° 260° (W) 08:46:41 435.910
PRISM 18 Nov 08:35:09 08:36:28 11° 60° (ENE) 08:37:47 437.425
AAUSAT CUBESAT 2 18 Nov 08:42:48 08:46:54 54° 287° (WNW) 08:50:58 437.432
SO-50 18 Nov 08:45:29 08:48:57 21° 248° (WSW) 08:52:26 436.795
Oscar 11 18 Nov 08:47:25 08:51:42 62° 101° (E) 08:56:00 .
PCSat 18 Nov 08:50:41 08:54:51 22° 43° (NE) 08:59:00 145.827
HO-68 18 Nov 08:52:07 08:58:31 36° 298° (WNW) 09:04:54 435.675
YUBILEINY 18 Nov 08:57:45 09:01:34 13° 306° (NW) 09:05:26 435.215
ZACube-1 18 Nov 09:10:08 09:14:04 43° 288° (WNW) 09:17:59 437.345
UWE-3 18 Nov 09:12:31 09:15:47 23° 293° (WNW) 09:19:01 435.000/436.395/437.385
UNISAT 6 18 Nov 09:40:13 09:44:44 55° 260° (W) 09:49:12 437.425
TIGRISAT 18 Nov 09:45:34 09:50:04 52° 260° (W) 09:54:29 435.000
DELFI C3 18 Nov 09:45:41 09:49:39 57° 100° (E) 09:53:34 145.870
Max Valier Satellite 18 Nov 10:00:13 10:03:50 58° 101° (E) 10:07:27 145.860
AO-73 18 Nov 10:04:44 10:06:56 14° 297° (WNW) 10:09:08 145.935
EO-88 18 Nov 10:06:38 10:10:11 47° 99° (E) 10:13:43 145.990 - 145.960
PRISM 18 Nov 10:07:02 10:11:08 73° 258° (WSW) 10:15:17 437.425
DUCHIFAT 1 18 Nov 10:10:42 10:11:37 11° 60° (ENE) 10:12:33 145.980
EO-79 18 Nov 10:12:10 10:14:30 15° 63° (ENE) 10:16:50 145.935-145.965
NANOSAT C BR1 18 Nov 10:17:41 10:20:04 15° 63° (ENE) 10:22:25 145.865
Oscar 11 18 Nov 10:25:07 10:27:20 14° 298° (WNW) 10:29:33 .
POLYITAN 1 18 Nov 10:25:38 10:28:43 20° 65° (ENE) 10:31:48 437.675
PCSat 18 Nov 10:33:23 10:38:48 71° 243° (WSW) 10:44:10 145.827
AIST 2D 18 Nov 10:35:41 10:39:06 65° 75° (ENE) 10:42:33 435.315
BEESAT 3 18 Nov 10:40:59 10:41:58 11° 34° (NE) 10:42:57 437.485
LO-87 18 Nov 10:42:59 10:45:12 16° 92° (E) 10:47:26 145.935 - 145.965
QB50P2 18 Nov 10:47:41 10:51:35 36° 70° (ENE) 10:55:29 145.880/145.840
ESTCUBE 1 18 Nov 11:04:51 11:08:32 24° 94° (E) 11:12:13 437.505/2401.250
FALCONSAT 3 18 Nov 11:13:16 11:15:00 13° 160° (SSE) 11:16:45 435.103
BUGSAT 1 18 Nov 11:15:16 11:17:24 14° 63° (ENE) 11:19:31 437.445
DELFI C3 18 Nov 11:22:02 11:23:54 13° 297° (WNW) 11:25:46 145.870
Oscar 19 18 Nov 11:27:51 11:30:20 14° 58° (ENE) 11:32:50 437.125/150
Gurwin Techsat 1B 18 Nov 11:28:28 11:29:13 10° 55° (NE) 11:29:58 435.225
Max Valier Satellite 18 Nov 11:36:19 11:37:09 11° 297° (WNW) 11:37:59 145.860
EO-88 18 Nov 11:41:48 11:43:24 13° 296° (WNW) 11:45:00 145.990 - 145.960
DUCHIFAT 1 18 Nov 11:42:25 11:46:39 80° 259° (W) 11:50:53 145.980
BEESAT 2 18 Nov 11:43:25 11:45:30 13° 37° (NE) 11:47:33 435.950
EO-79 18 Nov 11:45:36 11:49:47 57° 260° (W) 11:53:59 145.935-145.965
NANOSAT C BR1 18 Nov 11:51:09 11:55:18 55° 260° (W) 11:59:29 145.865
POLYITAN 1 18 Nov 12:00:15 12:04:14 39° 262° (W) 12:08:14 437.675
LO-87 18 Nov 12:15:31 12:18:43 31° 289° (WNW) 12:21:52 145.935 - 145.965
BEESAT 3 18 Nov 12:16:20 12:20:17 67° 54° (NE) 12:24:09 437.485
AO-85 18 Nov 12:21:51 12:24:57 18° 40° (NE) 12:28:12 145.980
QB50P2 18 Nov 12:24:17 12:27:28 20° 267° (W) 12:30:39 145.880/145.840
AO-7 18 Nov 12:32:45 12:37:26 17° 45° (NE) 12:42:06 .
ESTCUBE 1 18 Nov 12:41:17 12:45:23 35° 291° (WNW) 12:49:29 437.505/2401.250
BUGSAT 1 18 Nov 12:48:07 12:52:16 60° 259° (WSW) 12:56:25 437.445
FALCONSAT 3 18 Nov 12:50:26 12:53:25 23° 175° (S) 12:56:24 435.103
M-CUBED/EXP-1 PRIME 18 Nov 12:51:45 12:54:16 18° 59° (ENE) 12:56:55 437.505
SPROUT 18 Nov 13:02:25 13:06:40 76° 285° (WNW) 13:10:53 437.525
Gurwin Techsat 1B 18 Nov 13:02:54 13:08:10 68° 73° (ENE) 13:13:28 435.225
Oscar 19 18 Nov 13:03:49 13:08:56 85° 257° (WSW) 13:14:05 437.125/150
O/OREOS (USA 219) 18 Nov 13:15:41 13:18:52 19° 100° (E) 13:22:05 437.305
VELOX 1 18 Nov 13:15:50 13:20:19 89° 270° (W) 13:24:46 145.980
BEESAT 2 18 Nov 13:19:46 13:23:49 90° 4° (N) 13:27:49 435.950
UKube-1 18 Nov 13:25:48 13:28:36 17° 92° (E) 13:31:23 .
50 SAT 18 Nov 13:26:39 13:29:26 26° 97° (E) 13:32:12 437.505
BEESAT 3 18 Nov 13:55:59 13:57:14 11° 252° (WSW) 13:58:28 437.485
AO-85 18 Nov 14:01:12 14:05:53 84° 239° (WSW) 14:10:56 145.980
DX 1 18 Nov 14:11:35 14:16:00 83° 101° (ESE) 14:20:23 434.975-435.025
AO-7 18 Nov 14:20:29 14:28:38 65° 66° (ENE) 14:36:49 .
M-CUBED/EXP-1 PRIME 18 Nov 14:25:19 14:28:26 32° 258° (WSW) 14:31:48 437.505
FALCONSAT 3 18 Nov 14:29:07 14:31:57 21° 190° (S) 14:34:48 435.103
BEESAT 18 Nov 14:43:08 14:46:08 17° 92° (E) 14:49:08 436.000
Gurwin Techsat 1B 18 Nov 14:45:25 14:48:37 16° 270° (W) 14:51:48 435.225
ITAMSAT 1 18 Nov 14:49:13 14:54:20 59° 71° (ENE) 14:59:30 435.822/435.867
ITUPSAT 1 18 Nov 14:50:20 14:53:43 19° 93° (E) 14:57:06 437.325
O/OREOS (USA 219) 18 Nov 14:53:28 14:57:54 46° 298° (WNW) 15:02:22 437.305
VELOX 1 18 Nov 14:55:16 14:56:01 10° 301° (WNW) 14:56:46 145.980
50 SAT 18 Nov 14:59:16 15:01:21 16° 293° (WNW) 15:03:25 437.505
UKube-1 18 Nov 15:00:42 15:04:51 46° 289° (WNW) 15:08:59 .
YUBILEINY 18 Nov 15:08:00 15:12:55 16° 56° (NE) 15:17:49 435.215
DOVE 4 18 Nov 15:08:30 15:11:28 16° 60° (ENE) 15:14:31 437.250
NO-84 18 Nov 15:24:32 15:27:05 18° 125° (SE) 15:29:46 435.350 FM
MOZHAYETS 4 18 Nov 15:32:00 15:36:34 69° 102° (ESE) 15:41:06
CUBESAT XI-V 18 Nov 15:36:01 15:39:17 18° 92° (E) 15:42:31 437.345
AO-85 18 Nov 15:44:27 15:45:42 11° 252° (WSW) 15:46:58 145.980
DX 1 18 Nov 15:50:15 15:51:30 11° 301° (WNW) 15:52:46 434.975-435.025
CUTE-I 18 Nov 16:02:47 16:04:38 12° 55° (NE) 16:06:29 437.470
AO-7 18 Nov 16:14:56 16:21:53 30° 265° (W) 16:28:55 .
BEESAT 18 Nov 16:19:35 16:24:15 55° 288° (WNW) 16:28:52 436.000
ITUPSAT 1 18 Nov 16:27:12 16:31:47 48° 289° (WNW) 16:36:20 437.325
ITAMSAT 1 18 Nov 16:30:37 16:34:10 18° 268° (W) 16:37:45 435.822/435.867
LilacSat-2 18 Nov 16:34:26 16:36:59 18° 66° (ENE) 16:39:32 437.200
XW-2C 18 Nov 16:36:26 16:38:55 17° 66° (ENE) 16:41:24 145.795 - 145.815
NUDT-PHONESAT 18 Nov 16:40:31 16:42:13 13° 64° (ENE) 16:43:54 437.300
DOVE 4 18 Nov 16:43:29 16:48:26 74° 258° (WSW) 16:53:40 437.250
XW-2F 18 Nov 16:49:34 16:52:28 22° 68° (ENE) 16:55:24 145.980 - 146.000
NO-84 18 Nov 17:00:12 17:03:59 64° 324° (NW) 17:08:04 435.350 FM
YUBILEINY 18 Nov 17:02:41 17:11:34 71° 79° (E) 17:20:22 435.215
CUTE 1.7 + AOD 2 18 Nov 17:08:46 17:09:53 11° 61° (ENE) 17:11:00 437.475
MOZHAYETS 4 18 Nov 17:10:50 17:13:09 14° 299° (WNW) 17:15:29
CUBESAT XI-V 18 Nov 17:12:23 17:16:53 48° 288° (WNW) 17:21:23 437.345
KAITUO 1B 18 Nov 17:22:11 17:25:39 41° 72° (ENE) 17:29:08 145.475/437.950
XW-2D 18 Nov 17:28:54 17:32:37 75° 76° (ENE) 17:36:22 145.860 - 145.880
CUBEBUG 2 18 Nov 17:32:06 17:34:18 14° 62° (ENE) 17:36:30 437.445
HO-68 18 Nov 17:33:45 17:40:20 40° 63° (ENE) 17:46:55 435.675
RS-15 18 Nov 17:37:39 17:46:25 24° 99° (E) 17:55:08 29.354- 29.394
CUTE-I 18 Nov 17:38:24 17:43:45 77° 74° (ENE) 17:49:09 437.470
XW-2B 18 Nov 17:43:37 17:47:19 75° 257° (WSW) 17:51:05 145.730 - 145.750
SEEDS 18 Nov 17:43:40 17:46:13 16° 64° (ENE) 17:48:46 437.485
KKS-1 18 Nov 17:46:12 17:50:42 89° 306° (NW) 17:55:09 437.445
AAUSAT CUBESAT 2 18 Nov 18:01:27 18:02:28 11° 61° (ENE) 18:03:29 437.432
LilacSat-2 18 Nov 18:07:34 18:11:00 33° 263° (W) 18:14:27 437.200
XW-2C 18 Nov 18:09:25 18:12:50 34° 263° (W) 18:16:16 145.795 - 145.815
NUDT-PHONESAT 18 Nov 18:12:09 18:15:39 45° 261° (W) 18:19:11 437.300
STARS 18 Nov 18:19:07 18:23:32 83° 101° (E) 18:27:55 437.465
XW-2F 18 Nov 18:23:21 18:26:28 25° 265° (W) 18:29:36 145.980 - 146.000
ZACube-1 18 Nov 18:31:57 18:34:36 16° 64° (ENE) 18:37:14 437.345
STRAND 1 18 Nov 18:33:05 18:35:34 13° 89° (E) 18:38:01 437.568
UWE-3 18 Nov 18:33:21 18:37:16 30° 69° (ENE) 18:41:07 435.000/436.395/437.385
NO-84 18 Nov 18:38:58 18:42:02 20° 344° (NNW) 18:45:13 435.350 FM
CUTE 1.7 + AOD 2 18 Nov 18:40:53 18:45:04 76° 257° (WSW) 18:49:18 437.475
XW-2A 18 Nov 18:47:57 18:50:58 33° 72° (ENE) 18:54:00 145.665 - 145.685
KAITUO 1B 18 Nov 18:58:00 18:59:49 13° 269° (W) 19:01:41 145.475/437.950
YUBILEINY 18 Nov 19:00:41 19:07:30 26° 280° (W) 19:14:19 435.215
CUBEBUG 2 18 Nov 19:05:45 19:10:23 71° 258° (WSW) 19:14:54 437.445
SEEDS 18 Nov 19:17:28 19:21:30 48° 261° (W) 19:25:33 437.485
HO-68 18 Nov 19:21:13 19:27:58 43° 262° (W) 19:34:47 435.675
CUTE-I 18 Nov 19:21:33 19:24:23 14° 271° (W) 19:27:13 437.470
AO-73 18 Nov 19:23:05 19:27:14 47° 73° (ENE) 19:31:19 145.935
KKS-1 18 Nov 19:25:41 19:26:30 10° 302° (WNW) 19:27:20 437.445
AAUSAT CUBESAT 2 18 Nov 19:33:10 19:37:17 75° 259° (W) 19:41:26 437.432
FO-29 18 Nov 19:42:00 19:48:04 24° 88° (E) 19:53:53 435.910
Oscar 11 18 Nov 19:42:50 19:46:59 52° 73° (ENE) 19:51:11 .
RS-15 18 Nov 19:44:48 19:57:08 85° 121° (ESE) 20:09:27 29.354- 29.394
STARS 18 Nov 19:57:54 19:59:12 11° 301° (WNW) 20:00:29 437.465
ZACube-1 18 Nov 20:06:15 20:10:30 51° 260° (W) 20:14:41 437.345
UWE-3 18 Nov 20:09:55 20:13:41 26° 265° (W) 20:17:25 435.000/436.395/437.385
STRAND 1 18 Nov 20:10:10 20:15:18 75° 286° (WNW) 20:20:23 437.568
NO-84 18 Nov 20:17:54 20:20:38 17° 6° (N) 20:23:26 435.350 FM
XW-2A 18 Nov 20:22:12 20:23:48 13° 268° (W) 20:25:24 145.665 - 145.685
DELFI C3 18 Nov 20:31:36 20:35:14 35° 71° (ENE) 20:38:53 145.870
Max Valier Satellite 18 Nov 20:39:55 20:43:05 29° 70° (ENE) 20:46:17 145.860
EO-88 18 Nov 20:45:19 20:48:15 24° 69° (ENE) 20:51:12 145.990 - 145.960
AO-73 18 Nov 21:01:00 21:03:41 16° 268° (W) 21:06:21 145.935
Oscar 11 18 Nov 21:21:02 21:23:26 15° 270° (W) 21:25:50 .
SO-50 18 Nov 21:22:45 21:24:05 11° 107° (ESE) 21:25:25 436.795
FO-29 18 Nov 21:25:51 21:33:45 76° 288° (WNW) 21:41:17 435.910
UNISAT 6 18 Nov 21:31:07 21:34:47 27° 95° (E) 21:38:24 437.425
TIGRISAT 18 Nov 21:36:15 21:39:57 28° 95° (E) 21:43:36 435.000
nSIGHT-1 18 Nov 21:44:09 21:47:06 34° 139° (SE) 21:50:04 .
PRISM 18 Nov 21:48:31 21:50:46 14° 91° (E) 21:53:00 437.425
STRAND 1 18 Nov 21:52:23 21:53:34 11° 304° (NW) 21:54:46 437.568
NO-84 18 Nov 21:55:14 21:59:03 31° 26° (NNE) 22:02:54 435.350 FM
RS-15 18 Nov 21:59:53 22:11:11 39° 328° (NNW) 22:22:17 29.354- 29.394
ESTCUBE 1 18 Nov 22:05:21 22:09:00 25° 67° (ENE) 22:12:41 437.505/2401.250
DELFI C3 18 Nov 22:07:19 22:10:04 18° 267° (W) 22:12:51 145.870
Max Valier Satellite 18 Nov 22:14:19 22:16:56 19° 266° (W) 22:19:34 145.860
ISS 18 Nov 22:18:45 22:21:59 62° 144° (SE) 22:25:14 437.550
EO-88 18 Nov 22:18:57 22:21:50 22° 265° (W) 22:24:44 145.990 - 145.960
VELOX 1 18 Nov 22:41:27 22:42:15 10° 59° (ENE) 22:43:03 145.980
LO-87 18 Nov 22:51:24 22:55:02 74° 259° (W) 22:58:39 145.935 - 145.965
SO-50 18 Nov 22:59:22 23:03:50 83° 304° (NW) 23:08:22 436.795
UNISAT 6 18 Nov 23:07:48 23:11:26 27° 292° (WNW) 23:15:02 437.425
FO-29 18 Nov 23:12:30 23:17:30 19° 307° (NW) 23:22:25 435.910
TIGRISAT 18 Nov 23:12:58 23:16:34 26° 292° (WNW) 23:20:07 435.000
nSIGHT-1 18 Nov 23:20:20 23:23:19 36° 337° (NNW) 23:26:20 .
PRISM 18 Nov 23:22:15 23:26:19 51° 288° (WNW) 23:30:20 437.425
O/OREOS (USA 219) 18 Nov 23:23:10 23:27:32 42° 61° (ENE) 23:31:50 437.305
DUCHIFAT 1 18 Nov 23:26:34 23:28:53 14° 91° (E) 23:31:10 145.980
EO-79 18 Nov 23:29:41 23:32:52 20° 94° (E) 23:36:00 145.935-145.965
AIST 2D 18 Nov 23:32:13 23:35:44 71° 101° (E) 23:39:15 435.315
NO-84 18 Nov 23:32:27 23:36:40 57° 224° (SW) 23:40:48 435.350 FM
NANOSAT C BR1 18 Nov 23:34:50 23:38:00 21° 94° (E) 23:41:08 145.865
PCSat 18 Nov 23:36:28 23:38:28 12° 102° (ESE) 23:40:27 145.827
ESTCUBE 1 18 Nov 23:41:38 23:45:39 33° 263° (W) 23:49:44 437.505/2401.250
POLYITAN 1 18 Nov 23:43:50 23:47:30 29° 96° (E) 23:51:09 437.675
ISS 18 Nov 23:55:48 23:58:40 27° 342° (NNW) 00:01:32 437.550
SPROUT 18 Nov 23:56:01 00:00:19 90° 4° (N) 00:04:38 437.525
50 SAT 18 Nov 23:56:35 23:57:25 11° 64° (ENE) 23:58:14 437.505
QB50P2 19 Nov 00:06:34 00:10:44 59° 101° (E) 00:14:52 145.880/145.840
VELOX 1 19 Nov 00:13:31 00:17:57 90° 164° (SSE) 00:22:26 145.980
RS-15 19 Nov 00:18:39 00:28:22 26° 2° (N) 00:37:45 29.354- 29.394
UKube-1 19 Nov 00:21:21 00:24:11 17° 63° (ENE) 00:27:01 .
BUGSAT 1 19 Nov 00:29:41 00:32:21 17° 92° (E) 00:35:00 437.445
SO-50 19 Nov 00:42:26 00:45:01 15° 325° (NW) 00:47:38 436.795
nSIGHT-1 19 Nov 00:57:53 01:00:12 18° 357° (N) 01:02:31 .
DUCHIFAT 1 19 Nov 01:00:47 01:04:49 49° 288° (WNW) 01:08:50 145.980
O/OREOS (USA 219) 19 Nov 01:03:19 01:06:37 20° 259° (W) 01:09:54 437.305
EO-79 19 Nov 01:04:53 01:08:42 35° 290° (WNW) 01:12:30 145.935-145.965
DX 1 19 Nov 01:07:37 01:11:58 81° 77° (ENE) 01:16:23 434.975-435.025
NANOSAT C BR1 19 Nov 01:09:58 01:13:47 34° 290° (WNW) 01:17:33 145.865
Oscar 19 19 Nov 01:14:33 01:19:06 31° 96° (E) 01:23:38 437.125/150
PCSat 19 Nov 01:15:35 01:21:00 87° 121° (ESE) 01:26:27 145.827
Gurwin Techsat 1B 19 Nov 01:18:37 01:22:56 25° 94° (E) 01:27:13 435.225
POLYITAN 1 19 Nov 01:19:44 01:23:10 25° 293° (WNW) 01:26:35 437.675
50 SAT 19 Nov 01:26:02 01:29:07 42° 261° (W) 01:32:14 437.505
ISS 19 Nov 01:33:30 01:35:53 18° 2° (N) 01:38:16 437.550
QB50P2 19 Nov 01:43:53 01:46:02 14° 298° (WNW) 01:48:10 145.880/145.840
BEESAT 19 Nov 01:50:13 01:53:56 23° 64° (ENE) 01:57:38 436.000
UKube-1 19 Nov 01:55:39 01:59:49 48° 260° (W) 02:04:02 .
ITUPSAT 1 19 Nov 01:57:48 02:01:45 26° 65° (ENE) 02:05:43 437.325
M-CUBED/EXP-1 PRIME 19 Nov 02:02:25 02:04:59 15° 96° (E) 02:07:35 437.505
BUGSAT 1 19 Nov 02:04:06 02:07:53 39° 289° (WNW) 02:11:37 437.445
AO-7 19 Nov 02:22:31 02:27:48 18° 90° (E) 02:33:03 .
RS-15 19 Nov 02:33:58 02:45:14 42° 35° (NE) 02:55:54 29.354- 29.394
nSIGHT-1 19 Nov 02:34:28 02:37:12 25° 17° (NNE) 02:39:55 .
MOZHAYETS 4 19 Nov 02:34:29 02:39:02 73° 75° (ENE) 02:43:36
CUBESAT XI-V 19 Nov 02:40:23 02:43:47 21° 65° (ENE) 02:47:11 437.345
Oscar 19 19 Nov 02:53:47 02:58:24 35° 293° (WNW) 03:03:02 437.125/150
Gurwin Techsat 1B 19 Nov 02:58:00 03:03:03 45° 291° (WNW) 03:08:06 435.225
PCSat 19 Nov 03:01:21 03:05:07 19° 320° (NW) 03:08:55 145.827
ITAMSAT 1 19 Nov 03:01:59 03:05:36 19° 92° (E) 03:09:10 435.822/435.867
ISS 19 Nov 03:10:02 03:13:03 33° 22° (NNE) 03:16:03 437.550
KKS-1 19 Nov 03:12:04 03:13:23 11° 59° (ENE) 03:14:41 437.445
BEESAT 2 19 Nov 03:14:05 03:15:26 11° 108° (ESE) 03:16:46 435.950
BEESAT 19 Nov 03:26:54 03:31:26 42° 261° (W) 03:35:59 436.000
ITUPSAT 1 19 Nov 03:35:01 03:39:24 36° 262° (W) 03:43:50 437.325
M-CUBED/EXP-1 PRIME 19 Nov 03:35:11 03:39:38 64° 292° (WNW) 03:44:12 437.505
BEESAT 3 19 Nov 03:43:15 03:47:14 84° 121° (ESE) 03:51:16 437.485
nSIGHT-1 19 Nov 04:10:30 04:13:42 71° 214° (SW) 04:16:51 .
YUBILEINY 19 Nov 04:13:14 04:17:48 16° 74° (ENE) 04:22:23 435.215
AO-7 19 Nov 04:13:15 04:21:39 86° 107° (ESE) 04:30:02 .
MOZHAYETS 4 19 Nov 04:15:08 04:16:41 11° 271° (W) 04:18:14
CUBESAT XI-V 19 Nov 04:16:28 04:20:50 43° 262° (W) 04:25:15 437.345
AO-85 19 Nov 04:17:58 04:20:54 21° 112° (ESE) 04:23:55 145.980
ITAMSAT 1 19 Nov 04:40:18 04:45:25 57° 289° (WNW) 04:50:30 435.822/435.867
DOVE 4 19 Nov 04:41:43 04:46:21 31° 94° (E) 04:50:47 437.250
ISS 19 Nov 04:46:28 04:49:34 40° 220° (SW) 04:52:39 437.550
